User: anonymous   Login
Location: Unspecified
(0.0000°N, 0.0000°E)
Time: 04:50:56
(UTC+01:00)
Language:

ATLAS 2AS CENTAUR R/B - Orbit

View from above orbital plane
View from above orbital plane
View from above satellite
View from above satellite

Ground track
Ground track

The orbit data is extracted from the following two-line orbital elements,

1 28096U 03054B   14322.77528986 0.00000100  00000-0  14976-3 0    05
2 28096  63.6680 277.1721 0255000 292.9837  67.0163 13.40758987    00
Epoch (UTC): 18 November 2014 18:36:25
Eccentricity: 0.0255000
inclination: 63.6680°
perigee height: 915 km
apogee height: 1297 km
right ascension of ascending node: 277.1721°
argument of perigee: 292.9837°
revolutions per day: 13.40758987
mean anomaly at epoch: 67.0163°
orbit number at epoch: 0

The dashed part of the orbit path shows where the satellite is in the earth's shadow,  

DLR